EDT,Max TemperatureF,Mean TemperatureF,Min TemperatureF,Max Dew PointF,MeanDew PointF,Min DewpointF,Max Humidity, Mean Humidity, Min Humidity, Max Sea Level PressureIn, Mean Sea Level PressureIn, Min Sea Level PressureIn, Max VisibilityMiles, Mean VisibilityMiles, Min VisibilityMiles, Max Wind SpeedMPH, Mean Wind SpeedMPH, Max Gust SpeedMPH,PrecipitationIn, CloudCover, Events, WindDirDegrees
2013-10-1,80,65,51,60,54,50,97,74,40,30.14,30.09,30.05,10,10,9,9,1,,0.00,0,,70
2013-10-2,84,70,57,63,60,56,97,73,41,30.14,30.10,30.06,10,10,6,12,2,,0.00,0,,244
2013-10-3,84,70,59,66,62,58,100,82,47,30.16,30.12,30.10,10,6,1,12,2,,0.00,1,,209
2013-10-4,84,72,61,68,64,60,100,88,51,30.16,30.12,30.08,10,4,0,10,1,,0.00,1,Fog,136
2013-10-5,86,74,61,68,64,58,100,90,44,30.14,30.10,30.07,10,4,0,13,1,,0.00,3,Fog,157
2013-10-6,81,72,63,72,67,63,100,91,67,30.09,30.05,29.98,10,5,0,14,2,,0.12,6,Fog-Rain,138
2013-10-7,82,76,70,72,71,68,100,84,65,29.97,29.92,29.87,10,10,8,17,6,29,0.03,3,Rain,169
2013-10-8,72,66,59,71,63,57,97,94,88,30.10,30.00,29.92,10,7,2,20,11,30,1.21,8,Rain,24
2013-10-9,64,61,59,61,59,57,96,93,90,30.06,29.99,29.93,10,8,2,23,18,32,0.65,8,Rain,346
2013-10-10,61,59,57,59,58,57,100,95,90,29.94,29.91,29.89,10,4,1,18,14,23,0.03,8,Rain,307
2013-10-11,66,63,60,62,60,59,97,91,81,29.96,29.92,29.88,10,9,3,9,7,,0.00,8,,295
2013-10-12,69,65,62,65,63,61,100,91,81,30.04,29.99,29.93,10,9,3,9,5,,0.02,8,Rain,303
2013-10-13,77,70,66,68,66,64,97,90,74,30.13,30.07,30.03,10,8,2,14,8,,0.02,7,Rain,353
2013-10-14,73,68,64,67,64,59,93,87,75,30.15,30.12,30.09,10,9,3,18,11,25,0.01,8,Rain,18
2013-10-15,70,65,60,65,61,58,96,91,76,30.12,30.07,30.01,10,7,2,12,10,18,0.00,8,Rain,352
2013-10-16,73,68,63,65,64,63,100,87,73,30.03,29.99,29.96,10,10,6,12,7,,0.00,8,,350
2013-10-17,78,68,59,67,62,58,97,85,62,29.99,29.94,29.89,10,9,2,12,4,,0.00,1,,218
2013-10-18,75,70,66,66,64,60,97,86,66,30.02,29.97,29.91,10,8,2,9,6,,0.38,7,Rain,1
2013-10-19,73,70,66,71,68,65,100,94,85,29.95,29.91,29.85,10,5,1,7,2,,0.02,7,Rain,208
2013-10-20,70,62,55,64,54,48,90,73,50,30.12,30.02,29.91,10,10,8,14,9,,0.02,3,Rain,7
2013-10-21,71,60,51,57,51,48,93,76,49,30.15,30.09,30.02,10,10,10,7,5,,0.00,2,,22
2013-10-22,66,60,55,61,55,50,93,83,70,30.02,29.94,29.86,10,10,6,7,4,,0.05,5,Rain,256
2013-10-23,72,62,52,59,54,38,100,84,47,29.97,29.77,29.69,10,6,0,17,6,25,0.13,5,Rain,258
2013-10-24,61,51,42,44,37,31,97,65,35,30.18,30.11,30.00,10,10,10,13,8,23,0.00,0,,307
2013-10-25,57,47,37,43,34,27,93,61,32,30.37,30.27,30.18,10,10,10,14,8,22,0.00,4,,357
2013-10-26,63,48,33,42,36,30,93,70,39,30.36,30.24,30.13,10,10,8,9,3,,0.00,0,,279
2013-10-27,66,54,42,48,42,37,93,69,40,30.17,30.12,30.08,10,10,10,10,4,,0.00,0,,209
2013-10-28,71,56,44,56,49,43,96,80,45,30.27,30.22,30.17,10,10,7,7,1,,0.00,1,,154
2013-10-29,73,60,48,57,53,47,97,81,53,30.33,30.29,30.25,10,8,5,7,1,,0.00,2,,110
2013-10-30,75,62,50,58,54,49,97,81,52,30.34,30.27,30.21,10,9,5,10,2,,0.00,0,,120
2013-10-31,78,64,51,68,60,50,97,87,64,30.23,30.15,30.02,10,8,4,14,3,20,0.00,3,,176